Volver al catálogo

COSMOS 2501

GLONASS

ActivoNavegaciónMEO
NORAD 40315·PAYLOAD·🇷🇺 Russia

Lanzado Nov 30, 2014 desde Plesetsk Cosmodrome

Loading…

Próximos Pases (próximas 24 horas)

TLE

ActualizadoSource: CelesTrak SupGP

Época: Sep 14, 2026, 23:59 UTC

1 40315C 14075A   26257.99979167  .00000000  00000+0  00000+0 0  2574
2 40315  63.6167 187.2655 0021921 209.5507 204.4720  2.13101465    14

Sigue COSMOS 2501 en tiempo real con AllMySat

Download on the App Store